Wind_Speed
27 26 26 26 26 26 26 25 25 25 24 24 25 25 26 26 27 27 28 28 29 29 30 32 32 33 33 33 34 34 34 35 34 34 34 34 33 34 34 35 34 34 34
27 26 26 27 26 26 26 26 26 26 26 26 26 27 27 28 29 29 29 30 30 31 32 32 32 32 33 33 33 34 34 34 34 34 34 35 34 34 35 35 36 35 35
27 28 27 27 26 26 27 27 27 27 27 27 27 27 28 29 29 30 30 30 31 31 32 32 32 32 32 33 32 33 34 34 34 34 35 35 35 35 35 35 36 35 35
28 28 28 28 27 27 28 28 28 29 28 28 28 28 28 29 30 30 31 31 31 31 32 32 32 32 33 33 33 34 34 34 35 36 36 36 36 36 36 36 36 36 36
30 31 31 30 30 29 29 29 29 29 30 29 29 29 30 30 31 32 32 32 32 32 32 32 32 32 32 33 33 33 34 34 35 36 36 37 37 37 37 37 36 37 37
31 31 32 33 31 31 31 31 30 30 31 31 31 31 31 32 31 32 32 32 32 32 32 31 31 31 32 32 33 34 35 35 36 36 37 37 37 37 37 37 37 36 36
32 32 32 33 33 32 32 32 32 32 32 32 32 32 32 32 32 32 32 32 32 32 31 31 31 31 32 32 33 34 35 35 36 36 36 37 37 37 37 36 36 37 37
33 33 33 33 34 34 33 33 33 33 33 33 33 34 33 32 33 33 33 33 33 33 32 31 31 32 32 33 33 34 35 36 36 36 36 36 36 36 37 38 38 38 38
33 33 33 33 34 35 35 34 34 34 34 34 35 35 35 35 34 34 34 34 34 33 33 33 33 33 34 34 34 34 35 36 36 36 36 36 36 36 37 37 38 38 39
34 34 34 34 35 36 36 36 36 35 35 35 35 36 37 37 36 35 35 35 35 35 34 34 35 35 35 35 35 35 36 36 36 36 36 36 35 36 37 37 38 38 38
35 35 35 36 36 36 37 38 38 38 38 38 37 37 38 38 37 37 36 36 36 36 36 36 36 36 36 36 36 37 37 37 36 37 37 36 36 37 37 38 38 38 38
36 36 37 37 37 38 38 39 40 40 40 40 39 39 39 39 38 38 38 37 37 37 37 37 37 37 37 37 37 37 37 37 37 38 38 37 37 37 38 39 39 39 39
37 38 38 38 38 39 39 40 41 41 41 41 41 41 41 41 41 41 40 38 38 38 38 38 38 38 39 39 38 38 38 38 38 39 39 39 40 40 39 39 40 40 40
39 39 39 39 40 40 41 42 42 42 42 42 42 43 43 43 43 42 41 41 40 39 39 39 40 40 40 40 40 40 40 40 40 40 40 40 40 40 41 40 40 40 39
40 40 40 40 41 42 42 43 43 44 44 44 44 45 45 45 45 44 43 43 43 41 40 41 41 41 41 41 41 42 42 41 41 42 42 42 42 42 42 42 42 41 41
40 41 42 41 41 42 43 44 44 44 44 44 45 46 46 46 46 46 46 46 45 44 43 43 43 43 44 44 44 44 44 43 43 43 42 42 43 43 42 42 42 42 42
41 42 43 43 42 42 42 44 44 45 44 45 45 46 46 47 47 48 48 47 47 47 46 45 46 46 46 46 46 46 46 45 44 44 43 43 43 44 44 44 43 44 44
43 43 44 44 44 44 44 44 45 46 46 46 47 47 47 48 48 48 48 48 48 49 49 48 47 48 48 48 48 48 47 46 46 45 44 44 44 45 46 45 45 45 44
45 45 45 45 46 46 46 47 46 46 47 48 48 48 48 49 49 49 49 50 50 50 50 50 49 49 49 49 49 49 48 47 47 47 47 46 46 46 46 45 45 45 45
46 46 47 47 48 48 48 49 49 49 49 49 49 49 50 50 50 50 51 51 51 51 51 50 50 50 49 49 49 48 48 48 47 47 47 46 46 46 45 45 45 45 45
47 47 48 49 49 50 50 51 51 52 51 51 50 50 49 50 50 50 51 52 52 52 51 51 50 50 49 49 48 48 48 48 47 47 46 46 46 45 45 46 45 45 45
49 49 49 50 50 51 51 52 52 52 52 52 51 50 50 50 50 50 51 51 52 52 52 52 51 50 50 49 49 49 48 47 47 47 46 46 46 46 46 46 46 45 44
50 50 51 51 51 51 51 52 52 52 51 51 51 51 51 50 50 51 52 52 52 52 52 52 52 51 51 50 50 50 49 49 48 48 47 46 46 46 46 45 44 43 43
51 52 52 52 52 52 52 52 52 52 51 51 51 50 50 50 50 51 51 51 51 51 51 51 51 51 51 50 50 50 49 49 48 48 47 47 46 46 45 44 44 43 43
50 50 51 52 52 52 52 52 52 52 51 51 51 50 50 50 51 51 51 51 51 51 51 50 50 50 50 50 50 50 49 48 48 47 47 46 46 45 45 44 44 43 43
49 49 50 51 51 51 51 51 51 51 50 50 50 50 50 50 50 50 51 51 50 50 50 49 49 49 49 49 49 48 48 47 47 47 46 46 45 45 44 44 44 44 44
Wind_Direction
250 251 253 256 257 258 260 262 264 268 270 272 273 274 274 274 275 277 278 280 281 280 280 280 280 280 279 279 280 279 279 278 277 279 279 281 281 282 281 282 280 281 281
251 252 253 255 258 258 260 262 264 268 271 272 273 274 274 275 276 277 279 281 282 282 282 282 283 283 282 282 282 280 280 279 278 278 279 280 280 281 281 281 280 279 280
253 252 254 256 257 259 260 261 264 266 269 271 273 275 276 276 278 279 281 282 283 284 283 283 283 283 283 283 283 282 281 281 279 279 280 280 280 280 280 280 279 279 279
255 254 256 256 257 261 263 265 265 265 268 270 272 275 277 277 279 281 282 283 284 285 284 284 283 283 283 284 284 283 282 282 280 280 280 280 281 281 279 278 276 277 278
256 256 258 258 260 262 264 266 267 266 267 269 272 275 278 279 281 282 282 283 283 284 284 284 283 283 284 285 284 284 283 283 282 281 280 281 280 279 278 277 277 276 277
257 259 260 262 262 262 264 266 268 268 269 270 272 275 278 281 282 281 282 282 283 284 284 283 283 284 285 286 285 285 285 285 284 283 281 280 280 278 277 277 276 276 278
258 261 263 263 262 263 265 266 268 268 270 271 273 276 279 281 281 281 282 282 282 283 283 283 284 285 286 286 286 286 286 286 285 284 284 282 280 279 278 278 278 276 277
259 262 264 264 263 265 266 267 268 268 270 273 275 277 279 280 281 281 282 281 282 282 282 283 284 285 287 288 288 287 287 286 285 285 284 283 282 280 280 279 278 278 278
260 262 263 265 266 266 266 268 268 268 270 273 275 277 278 279 280 280 280 280 280 281 281 282 284 285 286 287 289 288 288 287 285 285 284 283 283 281 281 280 279 279 278
261 262 264 266 267 268 268 268 268 269 271 274 276 276 277 278 279 278 279 279 279 280 280 282 283 285 285 286 288 289 289 288 286 285 283 283 283 282 282 281 280 280 279
262 264 265 266 268 269 269 269 269 271 272 273 275 277 277 277 278 278 278 278 278 279 280 281 283 284 285 286 287 288 289 288 287 286 283 282 281 281 282 282 282 280 279
262 263 265 266 267 268 269 270 271 271 272 273 274 275 276 276 277 278 278 278 278 278 279 280 282 283 285 286 287 288 288 288 287 286 283 282 280 281 282 282 282 281 279
264 265 265 266 267 269 269 271 271 272 272 273 274 274 275 276 276 277 278 278 278 278 279 280 281 282 283 285 286 287 287 287 287 286 283 281 280 281 281 281 280 281 279
265 266 267 266 268 269 271 272 271 271 273 273 274 274 275 276 276 277 277 278 279 278 279 280 280 282 283 284 286 287 286 286 286 284 282 280 280 281 281 282 282 280 279
266 267 268 268 268 269 270 271 271 271 271 272 273 273 274 274 276 276 276 277 278 278 279 279 280 281 282 284 285 286 286 285 285 284 282 279 279 280 280 280 280 279 278
269 269 269 269 269 270 271 270 271 271 271 272 272 272 273 274 276 276 276 277 278 278 279 279 279 279 281 283 284 285 285 284 284 283 281 279 279 279 280 279 279 278 277
272 272 272 271 270 270 271 272 271 271 272 272 273 274 274 274 275 276 276 277 278 278 278 278 278 279 280 282 283 284 283 283 283 282 281 280 280 279 279 280 279 279 277
272 273 273 273 273 273 273 273 272 272 273 274 274 275 275 276 276 276 276 276 277 278 278 277 278 279 280 282 282 282 282 282 282 282 281 280 280 279 278 279 279 279 278
272 273 273 273 273 273 274 273 273 274 274 274 275 275 275 275 276 275 275 276 277 277 277 277 277 279 281 282 282 282 281 280 281 281 281 280 280 279 278 278 279 278 278
275 274 274 274 274 274 274 274 274 275 275 276 276 275 275 275 275 275 275 276 276 277 277 277 278 279 280 281 281 281 280 281 281 281 280 280 279 278 278 278 278 278 278
275 275 275 275 275 275 275 275 275 276 276 276 277 276 276 277 277 276 276 276 276 277 277 278 279 279 279 279 280 280 280 280 281 281 280 280 279 279 278 278 278 277 277
275 274 275 275 275 275 275 276 276 276 277 276 277 277 277 277 277 276 276 277 277 278 279 279 279 280 280 279 279 280 280 280 280 279 279 279 279 279 278 278 277 277 277
274 274 274 274 275 275 275 275 276 276 276 277 277 277 277 277 277 276 276 277 278 278 279 280 280 280 280 279 279 280 280 280 280 280 279 279 279 279 278 277 277 277 277
275 274 273 274 274 274 274 275 275 275 275 276 277 276 276 276 277 277 277 277 278 280 280 280 280 281 281 281 280 281 280 280 279 279 279 279 279 279 278 278 277 278 277
276 275 274 274 274 273 273 274 274 274 274 275 275 276 276 275 275 276 277 277 278 279 280 281 281 281 281 281 281 281 281 280 279 279 279 279 278 278 278 278 278 278 278
276 275 275 275 274 274 273 274 274 274 274 274 274 275 275 275 275 276 276 277 277 278 278 279 280 281 281 280 280 280 280 279 278 278 277 278 278 277 276 276 277 278 278
Height
5810 5812 5813 5814 5815 5816 5817 5818 5818 5819 5819 5819 5819 5819 5819 5818 5818 5818 5817 5817 5816 5815 5815 5814 5813 5812 5811 5811 5810 5809 5809 5808 5808 5807 5807 5806 5806 5805 5805 5804 5804 5803 5802
5804 5806 5807 5809 5810 5810 5811 5812 5813 5813 5813 5813 5813 5813 5813 5813 5812 5812 5811 5811 5810 5809 5808 5807 5806 5805 5804 5803 5802 5801 5801 5800 5799 5799 5799 5798 5798 5797 5796 5796 5795 5794 5794
5799 5800 5801 5803 5804 5804 5805 5806 5806 5807 5807 5807 5807 5807 5807 5806 5806 5805 5805 5804 5803 5802 5801 5800 5799 5798 5797 5796 5795 5794 5793 5792 5791 5791 5790 5790 5789 5789 5788 5787 5786 5786 5785
5793 5794 5795 5796 5798 5798 5799 5800 5800 5801 5801 5801 5801 5801 5800 5800 5799 5799 5798 5797 5796 5795 5794 5793 5792 5791 5789 5788 5787 5786 5785 5784 5783 5782 5782 5781 5780 5779 5778 5777 5777 5777 5776
5787 5788 5789 5790 5791 5792 5793 5793 5794 5794 5794 5794 5794 5794 5794 5793 5793 5792 5791 5790 5789 5788 5787 5786 5785 5783 5782 5781 5780 5778 5777 5775 5774 5773 5773 5772 5771 5770 5768 5767 5767 5767 5767
5780 5781 5783 5784 5784 5785 5786 5787 5787 5787 5787 5788 5788 5788 5787 5786 5785 5785 5784 5783 5782 5781 5780 5779 5777 5776 5775 5773 5772 5770 5769 5767 5766 5765 5764 5763 5761 5760 5759 5758 5758 5758 5758
5774 5775 5776 5777 5778 5778 5779 5780 5780 5780 5781 5781 5781 5781 5780 5779 5778 5777 5776 5775 5775 5773 5772 5771 5770 5769 5767 5766 5764 5762 5760 5759 5757 5756 5755 5753 5752 5751 5750 5750 5749 5749 5748
5767 5768 5769 5770 5770 5771 5772 5772 5772 5773 5773 5773 5773 5773 5773 5772 5771 5770 5769 5768 5767 5766 5765 5764 5763 5761 5759 5758 5756 5754 5752 5750 5749 5748 5746 5745 5743 5742 5741 5741 5740 5739 5739
5759 5760 5761 5762 5763 5764 5764 5764 5765 5765 5766 5765 5765 5765 5765 5764 5764 5763 5761 5760 5759 5758 5757 5756 5755 5753 5752 5750 5748 5746 5744 5742 5740 5739 5737 5736 5735 5733 5732 5731 5731 5730 5730
5752 5753 5753 5754 5755 5756 5756 5756 5756 5757 5757 5757 5757 5756 5756 5755 5755 5755 5754 5752 5751 5750 5749 5748 5746 5745 5743 5742 5740 5737 5735 5733 5732 5730 5729 5727 5726 5725 5724 5722 5722 5721 5720
5744 5744 5745 5746 5747 5747 5747 5748 5748 5748 5748 5748 5748 5747 5747 5746 5745 5745 5745 5744 5743 5742 5741 5739 5738 5736 5735 5733 5731 5729 5727 5725 5723 5721 5720 5718 5717 5716 5715 5713 5712 5711 5711
5735 5736 5736 5737 5738 5738 5738 5738 5739 5739 5739 5739 5738 5738 5738 5737 5737 5736 5735 5735 5734 5733 5732 5730 5729 5727 5726 5724 5722 5720 5718 5715 5714 5712 5710 5709 5708 5707 5705 5704 5703 5702 5701
5726 5727 5727 5728 5728 5729 5729 5729 5729 5729 5729 5729 5728 5728 5728 5727 5727 5726 5725 5725 5724 5724 5723 5721 5719 5718 5716 5714 5712 5710 5708 5706 5704 5702 5701 5699 5698 5697 5695 5694 5693 5692 5691
5717 5717 5718 5718 5718 5719 5719 5719 5719 5719 5719 5718 5718 5718 5717 5717 5716 5716 5715 5714 5714 5714 5713 5712 5710 5708 5706 5704 5702 5700 5698 5696 5694 5692 5690 5689 5688 5686 5685 5684 5683 5682 5681
5707 5707 5708 5708 5708 5708 5708 5708 5708 5708 5708 5707 5707 5707 5707 5706 5705 5705 5704 5703 5703 5703 5703 5702 5700 5698 5695 5694 5692 5690 5688 5686 5684 5681 5679 5678 5677 5675 5674 5673 5672 5671 5670
5697 5697 5697 5697 5697 5697 5697 5697 5697 5697 5696 5696 5696 5695 5695 5695 5694 5693 5693 5692 5691 5691 5691 5691 5689 5687 5685 5683 5681 5679 5676 5674 5672 5670 5668 5667 5666 5664 5663 5662 5661 5660 5659
5686 5686 5686 5686 5686 5686 5686 5686 5685 5685 5685 5684 5684 5683 5683 5682 5682 5681 5680 5680 5679 5678 5678 5678 5676 5675 5673 5671 5669 5667 5665 5663 5661 5659 5657 5655 5654 5653 5651 5650 5649 5648 5647
5675 5675 5675 5675 5674 5674 5674 5674 5673 5673 5673 5672 5672 5671 5671 5670 5669 5669 5668 5667 5666 5665 5665 5665 5664 5662 5660 5658 5656 5655 5653 5651 5649 5647 5645 5644 5642 5641 5640 5639 5637 5636 5635
5664 5663 5663 5663 5662 5662 5661 5661 5661 5660 5660 5659 5659 5658 5658 5657 5656 5656 5655 5654 5653 5652 5651 5651 5650 5649 5647 5645 5643 5642 5640 5638 5636 5635 5633 5631 5630 5628 5627 5626 5625 5624 5623
5651 5651 5650 5650 5649 5649 5648 5648 5647 5647 5647 5646 5646 5645 5644 5643 5643 5642 5641 5640 5639 5638 5637 5636 5636 5635 5634 5632 5630 5628 5627 5625 5624 5622 5620 5618 5617 5616 5614 5613 5612 5611 5610
5638 5637 5637 5637 5636 5635 5635 5634 5634 5633 5633 5632 5632 5631 5630 5629 5629 5628 5627 5626 5625 5624 5623 5622 5622 5621 5620 5618 5616 5614 5613 5612 5610 5609 5607 5605 5604 5603 5601 5600 5599 5598 5597
5624 5624 5623 5623 5622 5622 5621 5620 5619 5619 5619 5618 5618 5617 5616 5615 5615 5614 5613 5612 5611 5610 5609 5608 5607 5606 5605 5603 5602 5600 5599 5598 5597 5596 5594 5593 5591 5590 5588 5587 5586 5585 5584
5610 5609 5608 5608 5608 5607 5606 5606 5605 5605 5604 5604 5603 5603 5602 5601 5600 5599 5598 5597 5596 5595 5594 5593 5592 5591 5590 5589 5588 5587 5585 5584 5583 5582 5580 5580 5578 5577 5575 5574 5573 5572 5571
5595 5594 5594 5593 5593 5592 5591 5590 5590 5590 5590 5589 5589 5588 5587 5586 5585 5584 5584 5583 5582 5581 5580 5578 5578 5577 5575 5573 5572 5571 5570 5569 5568 5567 5565 5565 5564 5563 5562 5560 5559 5558 5558
5580 5579 5578 5577 5577 5576 5575 5575 5574 5574 5574 5574 5573 5573 5572 5571 5570 5569 5569 5569 5568 5567 5565 5564 5562 5561 5560 5558 5557 5556 5555 5554 5554 5553 5551 5551 5550 5549 5549 5548 5546 5545 5544
5565 5564 5563 5562 5561 5561 5560 5559 5559 5559 5559 5559 5558 5558 5557 5556 5555 5554 5553 5553 5553 5552 5550 5549 5548 5547 5545 5544 5542 5541 5540 5539 5539 5539 5537 5537 5536 5535 5536 5535 5533 5532 5531